Location: Waco, TX
(31.5480°N, 97.1670°W)
Time: 18:32:53
(UTC-06:00)

ISS - Pass Details

Date: 16 January 2019
Orbit: 404 x 410 km, 51.6° (Epoch: 24 January)

Event Time Altitude Azimuth Distance (km) Brightness Sun altitude
Rises 20:27:24 0° 214° (SW) 2,315 0.5 -33.4°
Enters shadow 20:27:32 - 214° (SW) 2,261 0.4 -33.4°
Reaches altitude 10° 20:29:30 10° 210° (SSW) 1,460 - -33.8°
Maximum altitude 20:32:42 53° 132° (SE) 508 - -34.5°
Drops below altitude 10° 20:35:55 10° 54° (NE) 1,471 - -35.2°
Sets 20:38:02 0° 50° (NE) 2,336 - -35.6°
